Location: Prostejov
(49.4670°N, 17.1170°E)
Time: 10:43:26
(UTC+02:00)

ISS - Pass Details

Date: 21 May 2021
Orbit: 417 x 422 km, 51.6° (Epoch: 13 June)

Event Time Altitude Azimuth Distance (km) Brightness Sun altitude
Rises 23:45:16 0° 287° (WNW) 2,369 0.5 -18.8°
Reaches altitude 10° 23:47:22 10° 288° (WNW) 1,504 -0.5 -18.9°
Maximum altitude 23:50:45 86° 15° (NNE) 426 -3.8 -19.0°
Enters shadow 23:51:19 59° 101° (ESE) 489 -3.7 -19.0°
